Theta_e
328 332 333 332 333 333 333 334 335 334 332 334 336 338 340 340 339 343 346 345 342 337 337 340 339 341 339 337 336 337 336 334 334 334 334 333 332 329 329 329 328 324 323 322
330 333 332 330 332 332 332 333 334 333 333 335 336 337 338 339 336 336 340 338 337 335 340 340 339 339 338 336 335 334 334 333 332 332 332 332 330 329 330 328 323 323 322 321
331 331 330 332 334 334 333 332 333 332 333 336 338 338 340 339 339 337 337 337 336 336 343 341 339 339 338 336 335 334 334 334 332 331 330 330 330 330 328 325 325 323 321 321
330 328 329 332 333 333 334 331 331 331 332 334 336 335 337 337 338 336 340 342 337 337 342 339 337 337 338 336 334 334 332 332 333 332 332 333 332 327 325 325 324 323 318 317
330 330 330 331 331 330 330 330 331 331 333 334 335 338 338 337 339 338 345 343 338 337 342 339 336 336 335 336 335 334 332 332 331 329 328 330 326 325 325 324 322 318 313 308
329 326 328 329 329 329 330 330 330 329 331 335 334 337 333 338 339 337 344 342 340 341 341 337 336 335 336 335 333 332 331 327 327 327 323 324 325 324 325 323 320 315 312 312
328 327 325 327 328 329 330 332 334 334 334 335 334 335 335 335 334 336 344 342 341 341 340 338 336 335 335 335 333 330 331 332 325 326 323 324 323 321 321 318 314 311 311 311
333 333 331 329 330 332 331 333 336 339 340 337 336 340 339 336 337 336 341 341 341 340 339 339 337 337 335 333 331 331 331 328 325 325 324 319 321 320 316 311 311 312 312 311
333 334 332 333 331 332 335 336 330 339 339 341 338 337 335 337 338 339 342 342 340 340 339 337 336 336 334 333 332 332 329 328 326 325 323 320 319 313 310 307 309 312 310 311
334 336 334 335 333 333 335 334 340 338 341 341 339 341 341 339 340 340 342 341 340 340 338 337 336 335 333 333 332 330 327 324 322 321 320 320 314 311 308 309 309 309 310 310
336 338 337 336 337 337 337 337 336 337 338 342 343 341 336 337 336 340 340 341 340 339 337 335 334 332 332 331 328 326 322 321 321 321 319 315 313 309 309 310 310 310 310 309
338 342 343 338 334 334 334 337 338 340 341 341 339 341 331 336 335 337 338 339 337 336 334 332 330 328 330 328 325 323 322 321 321 319 316 313 311 309 309 310 310 310 310 308
338 342 343 338 335 336 338 337 336 336 337 342 344 341 334 334 336 335 337 336 336 335 334 331 328 326 326 326 324 322 321 320 320 317 314 314 311 310 310 310 310 311 310 309
334 339 340 342 339 336 338 337 336 337 342 340 339 338 337 337 337 334 335 336 336 335 333 331 330 327 326 325 324 322 320 318 317 315 314 314 312 311 310 311 311 311 310 308
336 341 337 337 336 337 337 338 338 340 339 342 338 340 338 336 336 336 334 336 336 335 333 331 330 328 326 324 323 322 321 318 315 314 314 314 312 311 311 312 311 311 310 309
336 340 339 339 336 336 338 337 338 339 337 340 339 340 333 328 329 333 335 336 336 335 333 331 329 328 327 324 321 319 320 319 315 314 314 314 314 312 312 313 312 311 311 311
339 340 340 342 336 338 340 341 341 334 330 333 337 331 326 326 325 325 328 329 332 331 331 330 327 327 326 324 320 318 318 317 315 315 314 314 314 313 314 314 314 313 313 312
338 340 339 343 339 343 336 336 338 332 328 330 332 327 323 321 320 319 320 324 325 324 323 324 324 322 320 319 318 317 317 316 315 315 315 314 314 314 314 315 314 314 314 313
336 338 342 343 341 337 333 335 337 335 334 327 329 328 327 325 320 323 319 319 319 320 321 321 320 319 319 319 318 318 317 316 315 315 315 314 314 314 315 315 316 315 315 314
334 336 340 340 339 338 335 336 335 334 335 329 326 328 329 325 327 324 321 320 320 319 318 318 318 319 319 319 317 316 316 316 314 312 313 313 314 314 313 313 316 316 315 314
337 337 340 339 341 338 336 336 334 336 335 331 329 327 325 325 324 324 322 321 320 320 319 318 318 318 317 315 315 316 316 316 315 314 313 313 315 315 315 313 312 314 315 315
339 339 338 339 342 340 332 335 334 333 329 325 324 323 324 323 322 321 321 321 319 318 317 316 317 318 317 315 316 316 314 314 317 317 316 315 315 314 315 314 314 313 315 315
340 337 340 336 339 333 332 334 333 327 324 323 323 322 322 322 321 321 320 319 318 318 318 318 318 312 304 302 302 303 301 303 306 313 315 315 315 314 314 314 313 313 313 313
333 331 337 337 335 333 325 324 322 321 323 323 323 322 323 324 323 322 319 315 311 310 309 308 306 304 301 297 296 296 295 296 298 303 304 306 309 311 314 315 314 313 312 313
336 335 336 335 331 325 325 324 323 323 323 323 322 322 323 322 317 313 311 309 308 307 304 301 300 298 297 296 295 293 293 293 294 295 296 300 301 303 305 308 310 312 313 312
334 336 336 338 330 327 326 322 323 325 324 323 323 319 317 314 312 309 306 304 305 305 301 299 298 297 296 294 292 291 291 292 293 294 296 297 297 298 300 300 301 304 304 305
Wind_Speed
1 4 6 9 5 3 3 6 8 8 3 3 5 4 7 5 6 7 7 5 5 3 1 2 3 2 1 0 2 4 5 4 6 6 5 4 3 5 1 6 6 8 8 8
1 7 9 4 6 5 7 8 11 6 3 5 5 9 7 7 5 5 6 4 3 4 2 2 2 2 1 4 7 7 7 6 4 4 4 3 5 3 2 4 2 3 6 8
6 7 2 6 9 10 11 10 11 10 1 3 3 6 6 5 6 6 6 4 5 5 5 4 4 4 4 6 7 10 8 6 4 3 3 4 2 2 2 3 1 3 5 7
7 4 8 8 10 11 13 17 13 10 8 10 2 9 5 7 9 7 7 4 8 7 6 6 5 3 3 5 7 7 4 4 5 4 2 2 3 2 2 1 2 3 6 8
13 7 6 8 17 7 15 8 9 7 7 4 6 5 3 2 10 12 8 5 7 9 8 7 6 3 2 2 3 4 4 4 6 5 4 5 5 3 1 3 3 5 8 11
17 2 5 15 13 9 8 8 6 1 3 6 7 5 8 5 11 9 6 5 8 10 9 7 7 3 3 3 4 4 6 6 4 3 5 6 3 2 2 2 4 7 8 10
3 6 4 5 8 2 2 2 6 8 6 10 2 5 10 7 6 8 9 8 8 8 8 6 5 5 5 4 4 5 4 3 3 6 5 3 1 3 3 4 6 7 10 11
4 6 2 3 3 2 2 2 5 14 12 14 2 5 3 2 2 2 7 8 8 8 6 5 5 6 7 7 6 4 4 5 6 4 1 1 2 3 3 5 5 7 9 10
3 5 1 3 1 2 4 3 2 3 1 4 3 4 9 3 4 3 8 9 9 7 6 6 6 7 7 6 6 6 5 5 5 3 2 1 2 2 3 4 8 9 12 12
1 6 1 1 2 6 2 5 4 3 6 10 3 4 8 3 8 9 10 10 10 8 8 7 8 8 7 6 7 7 7 7 6 5 4 4 3 4 3 7 11 14 15 15
3 4 5 2 6 8 3 3 1 2 2 5 8 4 2 10 8 11 11 12 12 12 11 9 9 9 8 9 9 9 8 7 7 7 7 6 5 6 7 10 14 16 15 14
2 2 6 11 2 3 2 4 5 5 5 3 4 6 1 8 6 9 12 12 11 11 11 9 10 10 10 11 11 11 10 8 8 8 7 7 8 9 11 13 15 15 13 14
1 2 6 7 4 2 2 1 3 1 1 10 8 7 2 2 1 6 11 12 11 11 11 10 11 12 12 11 10 10 9 9 9 9 9 9 10 11 13 15 16 13 13 13
3 2 8 12 15 4 9 6 5 6 6 11 11 18 7 6 7 6 9 12 13 12 12 11 11 13 12 11 11 11 10 10 10 10 10 11 12 14 15 16 16 14 14 14
0 4 3 10 10 9 11 12 9 10 13 8 14 11 13 9 8 12 10 10 11 12 13 13 11 10 10 11 12 13 14 13 12 12 12 14 14 15 17 17 16 15 16 14
2 2 3 9 4 4 7 6 6 6 10 9 11 11 11 11 5 7 11 10 11 13 12 10 9 9 11 13 13 10 11 15 13 14 16 15 15 15 17 18 17 17 17 15
0 3 3 3 8 9 2 9 7 10 11 7 6 8 9 9 7 7 6 3 8 8 7 7 9 11 12 14 10 11 13 12 13 16 17 17 16 16 17 16 16 18 17 16
0 1 1 4 8 1 3 4 6 10 13 11 11 13 13 8 7 3 4 3 7 7 6 7 8 8 9 8 10 13 13 14 15 17 18 19 18 19 18 16 17 19 17 18
1 2 1 2 3 3 2 5 4 1 6 7 10 9 11 10 10 2 4 2 1 2 4 3 3 5 7 9 12 13 15 15 16 19 18 18 18 21 20 19 19 19 17 18
3 2 1 1 1 3 4 6 1 2 5 4 7 4 8 11 2 6 3 2 4 3 1 4 6 8 10 7 9 12 14 14 15 21 24 24 22 20 26 24 21 19 18 19
1 1 1 1 2 2 2 5 1 1 1 5 7 4 5 8 4 4 4 3 5 6 8 7 5 7 8 11 10 10 12 15 19 18 20 22 17 19 23 26 26 23 19 17
2 2 2 1 2 1 2 4 0 3 3 3 2 5 6 6 7 9 9 9 11 10 9 8 8 14 17 18 13 13 16 19 19 19 17 17 18 18 14 17 21 23 18 17
2 3 1 4 1 2 5 5 3 2 1 3 3 4 5 8 9 11 12 14 18 20 18 18 16 19 21 21 21 19 20 20 20 18 18 18 18 18 17 16 19 18 15 16
4 3 2 2 2 2 2 3 2 5 8 9 9 9 11 11 11 13 13 13 16 19 20 20 19 19 18 19 21 20 21 22 21 20 20 21 20 22 19 16 14 14 13 15
1 7 4 3 2 6 5 5 6 10 12 13 13 13 12 12 13 12 12 14 16 17 17 17 17 17 17 17 19 21 23 24 23 21 20 20 20 20 21 19 16 17 14 16
6 5 5 3 7 2 4 4 6 9 11 10 12 13 15 15 13 15 14 14 15 15 14 16 15 15 15 17 19 22 23 23 22 21 20 20 20 19 19 20 23 16 18 19
Wind_Direction
106 226 234 247 225 314 267 268 272 278 274 257 260 209 205 216 251 239 226 230 226 218 109 3 2 323 259 334 107 130 143 161 173 162 164 185 189 167 168 314 303 307 318 332
160 237 243 224 225 248 265 289 271 285 209 235 231 257 194 207 231 223 206 210 219 175 153 95 81 72 78 102 111 122 115 129 152 163 171 168 188 204 300 318 9 350 344 350
232 253 61 223 241 257 267 253 278 290 208 247 256 262 208 205 221 207 232 226 199 186 148 103 36 60 90 115 120 123 109 105 118 162 185 190 178 327 72 98 348 344 1 7
260 298 236 236 259 255 273 277 268 275 293 290 286 294 261 217 205 209 204 211 181 158 123 104 72 36 72 110 123 135 128 78 83 102 183 183 110 75 133 88 348 353 12 18
254 244 204 230 243 239 267 300 280 286 273 270 233 253 275 279 238 211 177 149 141 142 133 126 111 94 67 151 134 134 148 111 101 94 104 118 111 98 15 345 5 19 15 15
264 276 247 255 276 242 267 269 270 138 236 258 285 255 287 234 238 208 150 137 136 132 121 122 121 138 148 136 129 130 122 110 105 115 119 127 110 29 19 31 14 6 9 358
287 252 283 255 272 162 173 239 284 279 258 283 36 242 277 307 284 247 166 155 146 138 138 143 156 179 166 157 147 132 109 94 107 141 148 136 55 30 48 21 357 2 350 338
280 292 207 162 255 326 178 231 288 293 292 296 137 250 292 2 23 8 153 150 152 147 151 143 168 177 164 160 163 156 145 129 140 161 185 337 70 82 30 346 356 340 326 326
233 255 305 33 153 291 149 246 50 280 222 268 281 274 265 253 204 171 167 165 163 159 164 165 189 189 179 179 185 187 171 172 196 217 259 248 156 111 332 333 329 316 318 321
248 274 223 140 184 65 284 128 248 253 277 285 245 273 280 274 228 202 180 184 174 166 175 189 196 197 193 196 191 193 201 214 220 220 209 201 230 299 301 308 312 312 314 317
204 235 259 260 216 256 174 215 138 286 256 279 294 264 224 296 298 214 193 184 180 178 184 188 190 201 201 199 201 203 212 219 227 219 211 225 264 280 274 294 305 311 308 315
43 271 251 263 46 14 293 276 226 246 226 227 290 268 272 289 292 206 185 182 182 183 188 189 190 200 208 210 208 219 221 229 228 214 228 249 270 265 270 288 299 308 302 312
88 240 289 267 229 115 283 252 224 98 160 242 264 265 42 356 104 204 180 178 180 194 200 198 198 207 216 221 225 234 231 229 222 220 239 261 266 263 277 292 300 296 300 307
211 232 260 281 295 280 275 252 218 221 266 280 257 284 278 262 232 200 194 193 193 195 205 211 212 216 220 227 233 239 239 234 230 237 249 266 270 273 284 296 294 287 298 302
11 270 271 286 289 270 267 275 290 249 271 266 292 274 308 306 302 218 200 205 204 206 212 219 224 228 234 238 245 246 246 238 238 247 255 265 278 280 287 294 287 281 293 291
26 290 314 298 332 337 282 316 303 318 352 264 288 292 354 330 330 192 192 183 205 218 226 232 237 236 241 244 247 243 241 240 241 253 259 266 272 282 284 292 283 276 287 292
345 314 326 282 324 304 178 357 20 60 26 338 25 9 349 26 17 84 96 169 229 245 243 233 228 235 246 249 242 235 242 250 252 259 265 268 271 274 281 284 281 272 278 292
121 127 243 303 321 72 1 341 75 73 37 26 44 37 29 20 292 138 120 186 247 241 222 219 222 234 252 250 237 245 252 254 259 263 266 267 269 269 273 276 277 274 275 282
60 148 140 331 342 309 85 25 358 333 64 79 114 80 56 275 261 81 22 310 15 214 233 235 214 226 241 240 246 246 253 256 257 263 283 292 295 286 279 274 274 277 274 275
97 70 284 186 350 28 17 348 75 196 75 233 172 168 199 234 89 38 40 113 105 98 350 251 232 227 240 331 321 300 300 297 292 285 286 291 289 282 283 281 280 281 275 274
153 65 294 188 256 224 301 337 243 75 234 300 282 312 32 56 48 358 351 6 3 359 358 337 317 352 359 333 324 318 318 320 315 301 295 294 296 303 298 285 284 280 271 273
243 228 202 160 224 193 15 277 334 13 319 314 29 44 49 42 32 16 19 10 8 8 10 14 18 45 35 23 18 27 17 350 342 333 323 318 309 302 304 293 288 283 272 271
228 237 273 224 333 338 300 272 305 252 301 30 46 56 81 50 38 33 36 43 43 43 42 47 60 60 45 36 35 30 10 1 357 359 355 353 349 349 338 313 301 295 279 270
208 178 231 239 163 285 43 78 77 97 101 82 72 72 74 73 67 64 58 53 54 50 50 53 53 50 42 34 32 26 13 8 7 3 359 355 351 350 349 347 332 318 318 306
118 160 194 239 195 140 106 97 108 108 102 85 70 69 81 86 77 77 67 60 59 59 57 53 53 48 38 29 25 17 11 7 5 358 357 355 350 350 345 341 345 339 341 343
187 174 194 216 168 193 96 77 134 112 92 90 91 79 72 81 83 78 70 65 61 59 51 49 45 40 31 23 17 11 8 5 0 355 353 349 345 345 341 338 333 336 337 341